This demonstration page uses our WeatherBlox Daily Observations layout. Learn more.

Left ArrowRight Arrow

36.17497, -115.13722

Hourly Observations for February 3, 2019

Temp ( °F °C ) Dew Point ( °F °C ) Humidity (%) Winds ( mph kmh ) Pressure ( in mb ) Visibility ( mi km ) Precip ( " mm )
12:53 am 00:53 Clear 51 10.6 36 2.2 56 56 S 6 9 29.73 1007 10 16 0.00 0.00
1:27 am 01:27 Clear 52 11.1 33 0.6 49 49 W 20 31 29.72 1006 10 16 0.00 0.00
1:53 am 01:53 Clear 51 10.6 33 0.6 50 50 WSW 16 26 29.76 1008 10 16 0.00 0.00
2:53 am 02:53 Clear 50 10 33 0.6 52 52 SSW 10 17 29.76 1008 10 16 0.00 0.00
3:53 am 03:53 Clear 48 8.9 35 1.7 61 61 SSW 18 30 29.75 1007 10 16 0.00 0.00
4:53 am 04:53 Clear 47 8.3 35 1.7 63 63 SW 18 30 29.75 1008 10 16 0.00 0.00
5:53 am 05:53 Clear 47 8.3 34 1.1 61 61 S 25 41 29.77 1008 10 16 0.00 0.00
6:53 am 06:53 Cloudy 49 9.4 32 0 52 52 S 24 39 29.80 1009 10 16 0.00 0.00
7:53 am 07:53 Partly Cloudy 52 11.1 33 0.6 49 49 SSW 24 39 29.81 1010 10 16 0.00 0.00
8:53 am 08:53 Sunny 54 12.2 34 1.1 47 47 SSW 28 44 29.78 1008 10 16 0.00 0.00
9:53 am 09:53 Sunny 56 13.3 35 1.7 46 46 SSW 17 28 29.80 1009 10 16 0.00 0.00
10:53 am 10:53 Sunny 58 14.4 35 1.7 42 42 SSW 23 37 29.80 1009 10 16 0.00 0.00
11:53 am 11:53 Sunny 58 14.4 35 1.7 42 42 S 20 31 29.79 1009 10 16 0.00 0.00
12:53 pm 12:53 Sunny 59 15 35 1.7 41 41 SSW 22 35 29.77 1008 10 16 0.00 0.00
1:53 pm 13:53 Mostly Cloudy 60 15.6 35 1.7 39 39 S 23 37 29.75 1008 10 16 0.00 0.00
2:53 pm 14:53 Mostly Sunny 60 15.6 35 1.7 39 39 S 20 31 29.75 1007 10 16 0.00 0.00
3:53 pm 15:53 Sunny 57 13.9 36 2.2 45 45 S 10 17 29.76 1008 10 16 0.00 0.00
4:53 pm 16:53 Sunny 57 13.9 36 2.2 45 45 SSW 22 35 29.75 1008 10 16 0.00 0.00
5:53 pm 17:53 Mostly Cloudy 56 13.3 37 2.8 49 49 SSW 10 17 29.78 1009 10 16 0.00 0.00
6:53 pm 18:53 Cloudy 56 13.3 37 2.8 49 49 S 9 15 29.79 1009 10 16 0.00 0.00
7:53 pm 19:53 Mostly Cloudy 56 13.3 36 2.2 47 47 SSW 12 19 29.77 1008 10 16 0.00 0.00
8:53 pm 20:53 Cloudy 55 12.8 38 3.3 53 53 SSE 13 20 29.78 1009 10 16 0.00 0.00
9:53 pm 21:53 Cloudy 55 12.8 37 2.8 51 51 S 13 20 29.78 1008 10 16 0.00 0.00
10:53 pm 22:53 Mostly Cloudy 53 11.7 37 2.8 55 55 S 12 19 29.78 1009 10 16 0.00 0.00
11:53 pm 23:53 Clear 51 10.6 37 2.8 59 59 SSE 15 24 29.78 1008 10 16 0.00 0.00

Powered by AerisWeather